{"data":{"norad_id":63757,"epoch":"2026-05-24T12:02:52.353312Z","epoch_age_seconds":117746,"freshness":"FRESH","line1":"1 63757U 25089G   26144.50199483  .00195344  00000+0  14914-2 0  9994","line2":"2 63757  43.0021 194.8371 0001582 268.9560  91.1127 15.70822442 61952","mean_motion":15.70822442,"eccentricity":0.0001582,"inclination_deg":43.0021,"raan_deg":194.8371,"arg_perigee_deg":268.956,"mean_anomaly_deg":91.1127,"bstar":0.0014914,"rev_number":6195,"period_min":91.671723136739,"perigee_km":355.47981935471,"apogee_km":357.61067281738,"semimajor_km":6734.682246086,"source":"CELESTRAK","updated_at":"2026-05-25T13:38:20.104049Z"}}